DW8570 Weather Reports


Display with metric or nautical units.
time (UTC)temp
F
wind
direction
speed
MPH
gust
MPH
rain 1hr
in
rain 24hr
in
rain mn
in
humidity
%
barometer
mb
20191216044535 58 214 2.0 7.0 0.00 0.00 0.00 90 1012.3
20191216043012 58 196 2.0 6.0 0.00 0.00 0.00 90 1012.5
20191216041516 58 223 3.0 6.0 0.00 0.00 0.00 90 1012.6
20191216040009 58 204 1.0 6.0 0.00 0.00 0.00 90 1012.6
20191216034507 57 207 1.0 6.0 0.00 0.00 0.00 90 1012.8
20191216033024 57 202 0.0 4.0 0.00 0.00 0.00 90 1012.9
20191216031507 57 195 1.0 4.0 0.00 0.00 0.00 91 1013.0
20191216030028 56 173 0.0 2.0 0.00 0.00 0.00 90 1013.1
20191216024509 56 175 0.0 1.0 0.00 0.00 0.00 90 1013.3
20191216023008 56 175 0.0 2.0 0.00 0.00 0.00 90 1013.4
20191216021501 56 182 0.0 2.0 0.00 0.00 0.00 90 1013.3
20191216020156 56 146 0.0 2.0 0.00 0.00 0.00 90 1013.4
20191216014810 56 125 0.0 0.0 0.00 0.00 0.00 89 1013.5
20191216013222 56 125 0.0 0.0 0.00 0.00 0.00 89 1013.6
20191216011713 56 125 0.0 1.0 0.00 0.00 0.00 89 1013.5
20191216010227 57 125 0.0 1.0 0.00 0.00 0.00 89 1013.4
20191216004724 57 171 0.0 1.0 0.00 0.00 0.00 89 1013.3
20191216003159 57 171 0.0 1.0 0.00 0.00 0.00 89 1013.2
20191216001800 57 173 0.0 1.0 0.00 0.00 0.00 89 1013.1
20191216000221 57 173 0.0 1.0 0.00 0.00 0.00 89 1013.1
20191215234809 57 169 0.0 3.0 0.00 0.00 0.00 89 1012.9
20191215233144 57 178 0.0 7.0 0.00 0.00 0.00 89 1013.1
20191215231739 57 173 2.0 5.0 0.00 0.00 0.00 90 1012.9
20191215230218 57 189 0.0 5.0 0.00 0.00 0.00 90 1012.8
20191215224836 56 186 0.0 7.0 0.00 0.00 0.00 90 1013.0
20191215223252 56 163 1.0 4.0 0.00 0.00 0.00 90 1012.9
20191215221704 56 200 1.0 4.0 0.00 0.00 0.00 90 1012.9
20191215220220 55 208 3.0 7.0 0.00 0.00 0.00 90 1013.0
20191215214728 55 193 2.0 9.0 0.00 0.00 0.00 90 1013.1
20191215213124 55 181 1.0 6.0 0.00 0.00 0.00 90 1013.1
20191215211631 55 207 2.0 7.0 0.00 0.00 0.00 89 1013.1
20191215210134 55 198 1.0 7.0 0.00 0.00 0.00 89 1013.1
20191215204652 55 141 0.0 4.0 0.00 0.00 0.00 89 1013.2
20191215203201 55 190 1.0 6.0 0.00 0.00 0.00 88 1013.4
20191215201636 55 202 1.0 7.0 0.00 0.00 0.00 87 1013.5
20191215200056 55 197 1.0 10.0 0.00 0.00 0.00 87 1013.6
20191215194608 56 203 1.0 6.0 0.00 0.00 0.00 85 1013.6
20191215193155 56 211 1.0 7.0 0.00 0.00 0.00 85 1013.7
20191215191615 56 192 3.0 9.0 0.00 0.00 0.00 84 1014.1
20191215190151 56 180 2.0 7.0 0.00 0.00 0.00 84 1014.3
20191215184633 56 222 2.0 8.0 0.00 0.00 0.00 83 1014.4
20191215183144 56 202 2.0 7.0 0.00 0.00 0.00 83 1014.7
20191215181620 56 153 1.0 4.0 0.00 0.00 0.00 82 1014.9
20191215180106 56 200 0.0 7.0 0.00 0.00 0.00 82 1015.0
20191215174603 55 146 2.0 7.0 0.00 0.00 0.00 81 1015.2
20191215173228 55 146 2.0 8.0 0.00 0.00 0.00 81 1015.7
20191215171615 55 136 0.0 6.0 0.00 0.00 0.00 81 1015.9
20191215170134 55 219 2.0 6.0 0.00 0.00 0.00 81 1016.3
20191215164616 54 93 0.0 3.0 0.00 0.00 0.00 81 1016.6
20191215163055 54 192 0.0 4.0 0.00 0.00 0.00 81 1017.0
20191215161542 53 235 0.0 8.0 0.00 0.00 0.00 82 1017.1
20191215160047 52 232 1.0 5.0 0.00 0.00 0.00 83 1017.1
20191215154529 51 217 1.0 6.0 0.00 0.00 0.00 84 1017.2
20191215153011 49 209 0.0 3.0 0.00 0.00 0.00 87 1017.3
20191215151548 47 78 0.0 3.0 0.00 0.00 0.00 90 1017.2
20191215150006 46 88 0.0 5.0 0.00 0.00 0.00 91 1017.2
20191215144713 45 105 0.0 2.0 0.00 0.00 0.00 91 1017.2
20191215143244 44 104 0.0 2.0 0.00 0.00 0.00 91 1017.4
20191215141646 44 88 0.0 2.0 0.00 0.00 0.00 91 1017.5
20191215140324 43 45 0.0 1.0 0.00 0.00 0.00 91 1017.7
20191215134659 0 0.0 0.0 0.00 0.00 0.00 1017.7
20191215133332 0 0.0 0.0 0.00 0.00 0.00 1017.6
20191215131621 0 0.0 0.0 0.00 0.00 0.00 1017.6
20191215130219 0 0.0 0.0 0.00 0.00 0.00 1017.4
20191215124702 0 0.0 0.0 0.00 0.00 0.00 1017.4
20191215123238 0 0.0 0.0 0.00 0.00 0.00 1017.4
20191215121601 0 0.0 0.0 0.00 0.00 0.00 1017.2
20191215120155 0 0.0 0.0 0.00 0.00 0.00 1016.8
20191215114641 0 0.0 0.0 0.00 0.00 0.00 1016.8
20191215113028 0 0.0 0.0 0.00 0.00 0.00 1016.5
20191215111545 0 0.0 0.0 0.00 0.00 0.00 1016.5
20191215110032 0 0.0 0.0 0.00 0.00 0.00 1016.4
20191215104509 0 0.0 0.0 0.00 0.00 0.00 1016.2
20191215103251 0 0.0 0.0 0.00 0.00 0.00 1016.3
20191215101702 42 45 0.0 0.0 0.00 0.00 0.00 90 1016.0
20191215100151 42 45 0.0 2.0 0.00 0.00 0.00 90 1015.9
20191215094725 42 45 0.0 1.0 0.00 0.00 0.00 90 1015.8
20191215093243 42 45 0.0 2.0 0.00 0.00 0.00 90 1015.8
20191215091636 43 45 0.0 1.0 0.00 0.00 0.00 89 1015.7
20191215090135 43 45 0.0 1.0 0.00 0.00 0.00 89 1015.7
20191215084630 43 45 0.0 3.0 0.00 0.00 0.00 89 1015.3
20191215083142 43 45 0.0 2.0 0.00 0.00 0.00 89 1015.3
20191215081739 44 45 0.0 0.0 0.00 0.00 0.00 89 1015.4
20191215080101 44 45 0.0 1.0 0.00 0.00 0.00 89 1015.4
20191215074628 44 45 0.0 1.0 0.00 0.01 0.00 89 1015.2
20191215073315 44 45 0.0 1.0 0.00 0.01 0.00 89 1015.0
20191215071625 44 45 0.0 2.0 0.00 0.01 0.00 89 1014.9
20191215070116 44 45 0.0 2.0 0.00 0.01 0.00 90 1014.8
20191215064618 44 45 0.0 1.0 0.00 0.01 0.00 90 1014.6
20191215063116 44 45 0.0 2.0 0.00 0.01 0.00 90 1014.4
20191215061543 44 45 0.0 2.0 0.00 0.01 0.00 90 1014.2
20191215060116 44 45 0.0 1.0 0.00 0.01 0.00 90 1014.2
20191215054628 44 45 0.0 0.0 0.00 0.01 0.01 90 1014.1
20191215053050 44 26 0.0 1.0 0.00 0.01 0.01 91 1014.0
20191215051546 44 26 0.0 1.0 0.00 0.01 0.01 91 1013.8
20191215050023 45 26 0.0 0.0 0.00 0.01 0.01 91 1014.0